348  
ASUS43 KDTX 140810  
RWRMI  
MICHIGAN HOURLY REGIONAL WEATHER ROUNDUP  
NATIONAL WEATHER SERVICE DETROIT/PONTIAC MI  
400 AM EDT FRI AUG 14 2020  
 
NOTE: "FAIR" INDICATES FEW OR NO CLOUDS BELOW 12,000 FEET WITH NO  
SIGNIFICANT WEATHER AND/OR TO VISIBILITY
.  
 
MIZ047>049-052>055-059>063-066>070-074>076-081>083-140900-  
SOUTHEAST LOWER MICHIGAN  
 
CITY SKY/WX TMP DP RH WIND PRES REMARKS
 
ADRIAN CLEAR 66 59 78 NE8 30.04F  
ALMA CLEAR 62 59 88 CALM 30.10F  
ANN ARBOR MOCLDY 67 59 75 NE6 30.04F  
BAD AXE CLOUDY 59 58 98 CALM 30.09F  
CARO CLEAR 61 60 94 E5 30.08F  
DETROIT CITY MOCLDY 73 62 68 N7 30.04F  
DETROIT MOCLDY 71 61 70 NE7 30.04F  
FLINT PTCLDY 64 59 83 CALM 30.07F  
GROSSE ILE PTCLDY 73 63 70 NE8 30.02S  
HILLSDALE CLEAR 64 58 82 NE6 30.05S  
HOWELL CLEAR 63 58 85 CALM 30.07F  
 
CITY SKY/WX TMP DP RH WIND PRES REMARKS
 
JACKSON CLEAR 63 58 83 NE3 30.06F  
LAMBERTVILLE CLEAR 69 62 79 NE3 30.01S  
LANSING CLEAR 63 59 87 CALM 30.08S  
LAPEER FAIR 61 61 100 CALM 30.08F  
MASON CLEAR 62 58 86 CALM 30.07F  
MONROE CLEAR 68 66 93 N5 30.02S  
MT. CLEMENS CLEAR 65 65 100 N9 30.04F  
PONTIAC CLEAR 68 60 75 NE6 30.06F  
PORT HOPE N/A 67 64 90 CALM 30.08F  
PORT HURON CLEAR 61 57 88 NW3 30.07S  
TRI CITIES CLEAR 64 58 80 N5 30.09F  
MIDLAND FAIR 61 60 98 CALM 30.09S  
SAGINAW HB CLEAR 61 59 94 CALM 30.08F  

 
MIZ043>046-050>051-056>058-064>065-071>073-077>080-140900-  
SOUTHWEST LOWER MICHIGAN  
 
CITY SKY/WX TMP DP RH WIND PRES REMARKS
 
BATTLE CREEK CLEAR 64 59 83 N3 30.07S  
BENTON HARBOR N/A 61 58 90 CALM 30.04F  
BIG RAPIDS CLEAR 61 59 94 CALM 30.10F  
COLDWATER CLEAR 63 58 84 CALM 30.06S  
FREMONT FAIR 67 62 84 E5 30.07F  
HOLLAND CLEAR 61 57 87 CALM 30.06F  
GRAND RAPIDS CLEAR 65 62 90 NE5 30.07F  
KALAMAZOO CLEAR 63 57 81 N3 30.06S  
LUDINGTON CLEAR 64 62 96 CALM 30.07S  
MARSHALL CLEAR 63 58 83 CALM 30.06S  
MOUNT PLEASANT CLEAR 61 61 98 CALM 30.09F  
MUSKEGON CLEAR 69 60 73 E6 30.07F  
SOUTH HAVEN CLEAR 62 60 91 CALM 30.05F  

 
MIZ016>042-140900-  
NORTHERN LOWER MICHIGAN  
 
CITY SKY/WX TMP DP RH WIND PRES REMARKS
 
ALPENA PTCLDY 61 59 93 CALM 30.13S  
BEAVER ISLAND CLEAR 66 60 79 SE5 30.10S  
BELLAIRE CLEAR 58 56 93 CALM 30.10S  
CADILLAC CLEAR 61 57 88 E5 30.11S  
CHARLEVOIX CLEAR 68 55 62 SE6 30.09F  
FRANKFORT CLEAR 69 61 77 SE3 30.07F  
GAYLORD CLEAR 61 57 87 CALM 30.13F  
GRAYLING CLEAR 54 53 98 CALM 30.12F  
HARBOR SPRINGS CLEAR 65 61 86 NE5 30.11S  
HOUGHTON LAKE CLEAR 54 53 97 CALM 30.13F  
MANISTEE CLEAR 63 63 100 E6 30.07F  
OSCODA CLEAR 62 62 100 CALM 30.10S  
PELLSTON CLEAR 59 56 89 CALM 30.11F  
ROGERS CITY PTCLDY 61 58 89 CALM 30.13F  
TRAVERSE CITY CLEAR 68 60 75 CALM 30.08F  

 
MIZ007>008-015-140900-  
EASTERN UPPER MICHIGAN  
 
CITY SKY/WX TMP DP RH WIND PRES REMARKS
 
KINROSS PTCLDY 68 61 78 E10 30.12F  
MACKINAC ISLAN PTCLDY 67 62 82 SE6 30.11F  
NEWBERRY CLEAR 61 60 96 CALM 30.11S  
S. S. MARIE PTCLDY 63 60 90 E3 30.11F  
MUNISING N/A 65 58 78 SW6 30.07S  

 
MIZ004>006-011>014-085-140900-  
CENTRAL UPPER MICHIGAN  
 
CITY SKY/WX TMP DP RH WIND PRES REMARKS
 
MANISTIQUE CLEAR 66 61 84 E5 30.08F  
ESCANABA PTCLDY 58 57 97 CALM 30.08F  
MENOMINEE PTCLDY 63 62 97 CALM 30.08S FOG  
SAWYER-GWINN PTCLDY 61 57 87 SW3 30.10R  

 
MIZ001>003-009>011-084-140900-  
WESTERN UPPER MICHIGAN  
 
CITY SKY/WX TMP DP RH WIND PRES REMARKS
 
IRON MOUNTAIN CLEAR 63 59 87 CALM 30.08F  
HOUGHTON PTCLDY 68 62 81 SE7 30.05F  
COPPER HARBOR N/A 70 61 73 VRB3 30.05S  
IRONWOOD MOCLDY 68 61 78 VRB7 30.05R  

 
 
ABBREVIATIONS USED IN REMARKS  
TC - TEMPERATURE IN CELSIUS  
WCI - WIND CHILL INDEX  
HX - HEAT INDEX  
VSB - VISIBILITY  
 
 
 
CLICK HERE TO GO TO PREVIOUS BULLETINS.

The Nexlab MI Page Main Text Page